カタログに戻る

LEONAV-1

運用中アマチュア無線SSO
NORAD 69937·PAYLOAD·🇫🇷 France

打ち上げ Jul 7, 2026 から Vandenberg Space Force Base

Loading…

次のパス (今後24時間)

TLE

最新Source: Space-Track

元期: Sep 14, 2026, 04:20 UTC

1 69937U 26156BW  26257.18118114  .00001816  00000-0  18031-3 0  9993
2 69937  97.7435 156.5741 0009314 289.3760  70.6453 14.92939553 10277

AllMySatでLEONAV-1をリアルタイム追跡

Download on the App Store